RYR8YN EDNY-LEAL

Flight info

Callsign RYR8YN
Flight time N/A
Altitude 37000
Route TRA1E TRA DCT LUTIX DCT BENOT DCT NEMOS DCT GEVEA/N0434F330 DCT INCUS DCT BALSI/N0443F370 DCT RETNO DCT TUPOX DCT MTG DCT DIVKO DCT VATIR N852 PIVUS Z237 OKITI M603 GERVU
Aircraft B38M/M-SDE1FGHILORVWXY/HB1

Departure

Time 2026-04-28 13:59
Airport Bodensee Airport Friedrichshafen (EDNY)

Arrival

Time N/A
Airport Alicante-Elche Miguel Hernández Airport (LEAL)
Time Latitude Longitude Altitude Speed Heading
2026-04-28 13:21 47.67341 9.52306 1378 ft 0 kts 174°
2026-04-28 13:48 47.67350 9.52304 1376 ft 2 kts 176°
2026-04-28 13:48 47.67367 9.52304 1377 ft 2 kts 183°
2026-04-28 13:49 47.67383 9.52307 1378 ft 2 kts 194°
2026-04-28 13:49 47.67399 9.52316 1378 ft 2 kts 218°
2026-04-28 13:49 47.67409 9.52334 1376 ft 2 kts 239°
2026-04-28 13:49 47.67414 9.52346 1377 ft 1 kts 241°
2026-04-28 13:50 47.67414 9.52347 1377 ft 0 kts 241°
2026-04-28 13:53 47.67413 9.52344 1377 ft 1 kts 241°
2026-04-28 13:53 47.67400 9.52308 1377 ft 7 kts 240°
2026-04-28 13:53 47.67366 9.52222 1377 ft 13 kts 239°
2026-04-28 13:53 47.67313 9.52087 1376 ft 17 kts 240°
2026-04-28 13:54 47.67252 9.51930 1375 ft 18 kts 240°
2026-04-28 13:54 47.67186 9.51758 1375 ft 20 kts 240°
2026-04-28 13:54 47.67115 9.51575 1375 ft 21 kts 240°
2026-04-28 13:54 47.67039 9.51381 1377 ft 22 kts 240°
2026-04-28 13:55 47.66960 9.51178 1376 ft 24 kts 240°
2026-04-28 13:55 47.66877 9.50962 1377 ft 25 kts 240°
2026-04-28 13:55 47.66799 9.50788 1378 ft 18 kts 223°
2026-04-28 13:55 47.66704 9.50700 1376 ft 14 kts 208°
2026-04-28 13:56 47.66645 9.50588 1378 ft 15 kts 240°
2026-04-28 13:56 47.66591 9.50449 1376 ft 15 kts 239°
2026-04-28 13:56 47.66536 9.50308 1375 ft 17 kts 239°
2026-04-28 13:56 47.66489 9.50189 1376 ft 12 kts 240°
2026-04-28 13:57 47.66472 9.50064 1378 ft 13 kts 283°
2026-04-28 13:57 47.66517 9.49944 1375 ft 14 kts 302°
2026-04-28 13:57 47.66565 9.49843 1376 ft 11 kts 322°
2026-04-28 13:57 47.66618 9.49824 1378 ft 6 kts 38°
2026-04-28 13:58 47.66642 9.49887 1380 ft 12 kts 61°
2026-04-28 13:58 47.66780 9.50247 1380 ft 79 kts 60°
2026-04-28 13:58 47.67179 9.51272 1379 ft 148 kts 60°
2026-04-28 13:58 47.67773 9.52797 1674 ft 180 kts 60°
2026-04-28 13:59 47.68404 9.54413 2507 ft 183 kts 60°
2026-04-28 13:59 47.69060 9.56117 3140 ft 199 kts 60°
2026-04-28 13:59 47.69770 9.57967 3635 ft 214 kts 60°
2026-04-28 13:59 47.70715 9.59731 3899 ft 222 kts 37°
2026-04-28 14:00 47.72128 9.60521 3924 ft 219 kts
2026-04-28 14:00 47.73608 9.60078 3948 ft 219 kts 331°
2026-04-28 14:00 47.74715 9.58598 3964 ft 219 kts 302°
2026-04-28 14:00 47.75499 9.56675 4624 ft 214 kts 301°
2026-04-28 14:01 47.76304 9.54759 5359 ft 222 kts 301°
2026-04-28 14:01 47.77139 9.52810 6135 ft 224 kts 302°
2026-04-28 14:01 47.77990 9.50841 6899 ft 227 kts 302°
2026-04-28 14:01 47.78841 9.48883 7644 ft 230 kts 302°
2026-04-28 14:02 47.79700 9.46852 8314 ft 237 kts 296°
2026-04-28 14:02 47.80142 9.44399 8676 ft 255 kts 278°
2026-04-28 14:02 47.80440 9.41693 9066 ft 275 kts 279°
2026-04-28 14:02 47.80763 9.38798 9537 ft 289 kts 279°
2026-04-28 14:03 47.81086 9.35833 10321 ft 292 kts 278°
2026-04-28 14:03 47.81413 9.32795 10712 ft 310 kts 278°
2026-04-28 14:03 47.81761 9.29536 11172 ft 324 kts 278°
2026-04-28 14:03 47.82117 9.26186 11911 ft 328 kts 278°
2026-04-28 14:04 47.82473 9.22813 12671 ft 332 kts 278°
2026-04-28 14:04 47.82829 9.19441 13424 ft 336 kts 278°
2026-04-28 14:04 47.83193 9.15973 14199 ft 340 kts 278°
2026-04-28 14:04 47.83301 9.12456 14942 ft 343 kts 261°
2026-04-28 14:05 47.82694 9.09022 15695 ft 346 kts 253°
2026-04-28 14:05 47.82001 9.05557 16388 ft 351 kts 253°
2026-04-28 14:05 47.81287 9.02057 17104 ft 354 kts 253°
2026-04-28 14:05 47.80558 8.98534 17776 ft 358 kts 252°
2026-04-28 14:06 47.79814 8.94964 18426 ft 362 kts 252°
2026-04-28 14:06 47.79073 8.91418 19047 ft 366 kts 252°
2026-04-28 14:06 47.78308 8.87773 19659 ft 369 kts 252°
2026-04-28 14:06 47.77538 8.84108 20255 ft 372 kts 252°
2026-04-28 14:07 47.76768 8.80451 20830 ft 376 kts 252°
2026-04-28 14:07 47.75982 8.76724 21391 ft 379 kts 252°
2026-04-28 14:07 47.75186 8.72959 21936 ft 382 kts 252°
2026-04-28 14:07 47.74385 8.69177 22469 ft 386 kts 252°
2026-04-28 14:08 47.73572 8.65345 22991 ft 389 kts 252°
2026-04-28 14:08 47.72764 8.61546 23491 ft 392 kts 252°
2026-04-28 14:08 47.71942 8.57683 23983 ft 395 kts 252°
2026-04-28 14:08 47.71105 8.53762 24462 ft 398 kts 252°
2026-04-28 14:09 47.70263 8.49822 24927 ft 401 kts 252°
2026-04-28 14:09 47.69414 8.45877 25359 ft 403 kts 250°
2026-04-28 14:09 47.68138 8.42173 25787 ft 405 kts 234°
2026-04-28 14:09 47.66519 8.38783 26180 ft 408 kts 235°
2026-04-28 14:10 47.64878 8.35317 26563 ft 411 kts 234°
2026-04-28 14:10 47.63215 8.31848 26967 ft 413 kts 234°
2026-04-28 14:10 47.61528 8.28358 27339 ft 416 kts 234°
2026-04-28 14:10 47.59830 8.24856 27709 ft 419 kts 234°
2026-04-28 14:11 47.58126 8.21348 28068 ft 421 kts 234°
2026-04-28 14:11 47.56430 8.17863 28408 ft 423 kts 234°
2026-04-28 14:11 47.54698 8.14309 28754 ft 426 kts 234°
2026-04-28 14:11 47.52965 8.10769 29604 ft 421 kts 237°
2026-04-28 14:12 47.51271 8.07293 30502 ft 409 kts 238°
2026-04-28 14:12 47.49622 8.03917 31258 ft 400 kts 238°
2026-04-28 14:12 47.47998 8.00598 31664 ft 399 kts 238°
2026-04-28 14:12 47.46378 7.97294 31868 ft 402 kts 238°
2026-04-28 14:13 47.44734 7.93946 32227 ft 402 kts 238°
2026-04-28 14:13 47.43085 7.90589 32657 ft 401 kts 238°
2026-04-28 14:13 47.41446 7.87261 33112 ft 399 kts 238°
2026-04-28 14:13 47.40453 7.85245 33392 ft 398 kts 238°
2026-04-28 14:14 47.38844 7.81980 33863 ft 396 kts 238°
2026-04-28 14:14 47.37226 7.78702 34252 ft 394 kts 238°
2026-04-28 14:14 47.35604 7.75421 34521 ft 396 kts 238°
2026-04-28 14:14 47.33973 7.72126 34784 ft 397 kts 238°
2026-04-28 14:15 47.32360 7.68870 35057 ft 397 kts 237°
2026-04-28 14:15 47.30725 7.65572 35304 ft 398 kts 237°
2026-04-28 14:15 47.29089 7.62277 35555 ft 399 kts 237°
2026-04-28 14:15 47.27444 7.58969 35777 ft 400 kts 237°
2026-04-28 14:16 47.25812 7.55690 36038 ft 400 kts 237°
2026-04-28 14:16 47.24163 7.52382 36310 ft 399 kts 237°
2026-04-28 14:16 47.22509 7.49066 36491 ft 402 kts 237°
2026-04-28 14:16 47.20870 7.45785 36691 ft 402 kts 237°
2026-04-28 14:17 47.19211 7.42465 36908 ft 403 kts 237°
2026-04-28 14:17 47.17541 7.39128 37043 ft 404 kts 237°
2026-04-28 14:17 47.14053 7.32605 37041 ft 404 kts 234°
2026-04-28 14:18 47.12891 7.30455 37051 ft 404 kts 234°